Location: Rooftop Observatory
(39.0308°N, 87.1711°W)
Time: 07:01:02
(UTC-05:00)

Terra - Visible Passes

Search period start: 20 April 2014 00:00
Search period end: 30 April 2014 00:00
Orbit: 701 x 703 km, 98.2° (Epoch: 20 April)

Date Brightness Start Highest point End Pass type
(mag) Time Alt. Az. Time Alt. Az. Time Alt. Az.
20 Apr 3.6 21:45:46 18° NE 21:45:46 18° NE 21:48:12 10° NNE visible
20 Apr 3.9 23:24:39 25° NW 23:24:39 25° NW 23:26:48 10° NNW visible
21 Apr 3.0 22:28:55 34° NNE 22:28:55 34° NNE 22:31:53 10° N visible
22 Apr 4.7 00:07:48 11° WNW 00:07:48 11° WNW 00:08:09 10° NW visible
22 Apr 3.8 21:33:12 15° ENE 21:33:12 15° ENE 21:35:21 10° NNE visible
22 Apr 3.5 23:12:04 31° NW 23:12:04 31° NW 23:14:40 10° NNW visible
23 Apr 3.1 22:16:21 31° NE 22:16:21 31° NE 22:19:27 10° N visible
23 Apr 4.4 23:55:13 15° WNW 23:55:13 15° WNW 23:56:30 10° NW visible
24 Apr 4.0 21:20:37 11° ENE 21:20:39 11° ENE 21:21:58 10° NE visible
24 Apr 3.1 22:59:29 39° NNW 22:59:29 39° NNW 23:02:28 10° NNW visible
25 Apr 3.2 22:03:45 27° NE 22:03:45 27° NE 22:06:57 10° N visible
25 Apr 4.0 23:42:38 20° WNW 23:42:38 20° WNW 23:44:38 10° NW visible
26 Apr 2.7 22:46:54 44° N 22:46:54 44° N 22:50:11 10° N visible
27 Apr 3.4 21:51:10 22° ENE 21:51:10 22° ENE 21:54:20 10° NNE visible
27 Apr 3.6 23:30:03 27° NW 23:30:03 27° NW 23:32:37 10° NNW visible
28 Apr 2.6 22:34:19 45° NNE 22:34:19 45° NNE 22:37:50 10° N visible
29 Apr 4.6 00:13:11 11° WNW 00:13:11 11° WNW 00:13:37 10° WNW visible
29 Apr 3.6 21:38:35 17° ENE 21:38:35 17° ENE 21:41:33 10° NNE visible
29 Apr 3.2 23:17:27 35° NW 23:17:27 35° NW 23:20:30 10° NNW visible
